Overview Statistics Trail Chart Weather Telemetry Raw packets
 

This is the latest recevied weather packets stored in our database for station/object CT4TX-13. If no packets are shown the sender has not sent any weather packets the latest 10 day(s).

<< 2 3 4 5 6 7 8 >>
Time Temp. Humidity Pressure Rain* Wind** Luminosity Snow
1788566268 32.22° C 44% 1014.2 hPa - - - -
1788565676 32.22° C 44% 1014.4 hPa - - - -
1788565068 32.22° C 45% 1014.3 hPa - - - -
1788564468 32.22° C 45% 1014.2 hPa - - - -
1788563883 32.22° C 43% 1014.3 hPa - - - -
1788563268 32.22° C 44% 1014.4 hPa - - - -
1788562668 32.22° C 45% 1014.5 hPa - - - -
1788562068 32.22° C 44% 1014.5 hPa - - - -
1788561468 32.22° C 44% 1014.5 hPa - - - -
1788560868 32.22° C 45% 1014.5 hPa - - - -
1788560268 32.22° C 43% 1014.4 hPa - - - -
1788559668 32.22° C 43% 1014.5 hPa - - - -
1788559068 32.22° C 41% 1014.4 hPa - - - -
1788558468 32.22° C 39% 1014.7 hPa - - - -
1788557868 32.22° C 42% 1014.6 hPa - - - -
1788557268 32.22° C 43% 1014.7 hPa - - - -
1788556668 32.22° C 42% 1014.8 hPa - - - -
1788556068 32.22° C 42% 1015.1 hPa - - - -
1788555468 32.22° C 44% 1015 hPa - - - -
1788554868 32.22° C 44% 1014.9 hPa - - - -
1788554268 32.22° C 44% 1015.3 hPa - - - -
1788553668 32.22° C 44% 1014.8 hPa - - - -
1788553068 32.22° C 44% 1014.7 hPa - - - -
1788552468 32.22° C 45% 1015 hPa - - - -
1788551868 32.78° C 45% 1014.9 hPa - - - -

* Rain since midnight (hover to see other rain measurements)
** Current wind speed in m/s (hover to see current wind gust speed)